Погода в Гарях

Россия / Свердловская область     59°25′56″N   62°20′44″E
темп.,
°C
ветер,
м/с
пор.,
м/с
влажн.,
%
обл.,
%
осадки,
мм/ч
давл.,
гПа
погр.,
м
21 июня, пн
пн2123:00+11с7165437 0.0 10171243
02:00+7ссз513685 0.0 1019504
05:00+7ссз512686 0.0 1021464
08:00+12с57545 0.0 1022748
11:00+16ссз343788 0.0 10221407
14:00+18ссз343193 0.0 10211770
17:00+17ссз3439100 0.0 10211967
20:00+11сз2270100 0.0 102160
22 июня, вт
вт2223:00+11зсз2266100 0.0 102052
02:00+11ююз117096 0.0 101919
05:00+11юв2272100 0.0 101957
08:00+12вюв2370100 0.0 1018168
11:00+15вюв225583 0.0 1018649
14:00+19ссв224759 0.0 10181234
17:00+20ссв454897 0.0 10171630
20:00+16св3668100 0.0 1018241
23 июня, ср
ср2323:00+13сз248780 0.2 101877
02:00+10ссв33904 0.0 102051
05:00+9всв23825 0.0 102154
08:00+14св345632 0.0 1022621
11:00+18ссв35400 0.0 10221714
14:00+20св34313 0.0 10212007
17:00+21ссв24293 0.0 10212153
20:00+19в11490 0.0 102013
24 июня, чт
чт2423:00+12ююз22575 0.0 102020
02:00+10зюз34635 0.0 102060
05:00+10юз38674 0.0 1019140
08:00+18з355498 0.0 1016352
11:00+24сз354649 0.0 10151426
14:00+24сз355399 0.0 1013983
17:00+26зсз355199 0.0 1012906
20:00+21юз227867 0.7 101143
25 июня, пт
пт2523:00+18зюз0196100 5.3 101021
02:00+18юз3898100 3.6 1008224
05:00+17з249821 3.9 1007120
08:00+20ссз458986 0.0 1008482
11:00+21с478066 0.1 1009716
14:00+23ссв457195 0.4 1009953
17:00+23всв346885 0.4 1009640
20:00+23вюв35685 0.0 1009363